Regional Weather Roundup
Issued by NWS

Home | Current Version | Previous Version | Graphics & Text | Print | Product List | Glossary On
Versions: 1 2 3 4 5 6 7 8 9 10 11 12 13 14 15 16 17 18 19 20 21 22 23 24 25 26 27 28 29 30 31 32 33 34 35 36 37 38 39 40 41 42 43 44 45 46 47 48 49 50
000
ASUS45 KBOU 120007
RWRCO

WEATHER ROUNDUP FOR COLORADO
NATIONAL WEATHER SERVICE DENVER/BOULDER CO
500 PM MST THU FEB 11 2016

NOTE: "FAIR" INDICATES FEW OR NO CLOUDS BELOW 12000 FEET WITH NO
SIGNIFICANT WEATHER AND/OR OBSTRUCTIONS TO VISIBILITY.

COZ001>005-013-030-031-120100-
...NORTHWEST COLORADO...

CITY           SKY/WX    TMP DP  RH WIND       PRES   REMARKS
CRAIG          CLOUDY    26  18  71 CALM      30.38R
HAYDEN         CLOUDY    34  18  51 CALM      30.37R
MEEKER         CLEAR     38  24  57 CALM      30.36R
MOUNT WERNER   NOT AVBL
STEAMBOAT SPGS CLOUDY    32  18  57 CALM      30.37R
WALDEN         CLOUDY    36  19  51 S8        30.35R
$$

COZ006>008-011-120100-
...WEST CENTRAL VALLEYS...

CITY           SKY/WX    TMP DP  RH WIND       PRES   REMARKS
GRAND JUNCTION CLEAR     40  29  64 N6        30.37S
MONTROSE       CLOUDY    46  25  43 NW5       30.38R
EAGLE          CLEAR     45  19  36 CALM      30.37R
RIFLE          CLEAR     41  21  44 CALM      30.36S
DELTA          CLOUDY    48  28  45 W5        30.38R
NUCLA          CLOUDY    46  25  42 CALM      30.40S
$$

COZ017>023-064>068-120100-
...SOUTHWEST COLORADO...

CITY           SKY/WX    TMP DP  RH WIND       PRES   REMARKS
DURANGO        CLOUDY    39  23  52 E3        30.34S
CORTEZ         CLOUDY    51  24  34 VRB3      30.34S
PAGOSA SPRINGS CLOUDY    46  19  34 CALM      30.36S
TELLURIDE      CLOUDY    45   7  20 W9        30.44R
WOLF CREEK PAS CLOUDY    32   5  32 W6        30.54R WCI  26
$$

COZ009-010-012-014-032>034-037-058>063-120100-
...CENTRAL COLORADO...

CITY           SKY/WX    TMP DP  RH WIND       PRES   REMARKS
ASPEN          CLOUDY    40  17  39 NW6       30.38R
BUENA VISTA    CLOUDY    51  17  25 W5        30.30R
COPPER MTN     CLOUDY    34  12  40 W20G30    30.47R WCI  22
BERTHOUD PASS  FAIR      25  14  63 NW44      30.38R WCI   5
COTTONWOOD PAS CLOUDY    46  10  23 W15G26    30.38R
GUNNISON       CLOUDY    16   7  67 CALM      30.46S
KREMMLING      CLOUDY    21  10  63 CALM      30.40S
LEADVILLE      CLOUDY    37  13  37 NW16      30.39R
MONARCH PASS   CLOUDY    30   7  37 W26       30.55S WCI  16
SALIDA         NOT AVBL
SUNLIGHT       CLEAR     37  12  35 CALM      30.51R
WILKERSON PASS CLOUDY    36  12  38 NW10G17   30.45R
$$

COZ069>075-120100-
...SAN LUIS VALLEY/SANGRE DE CRISTO MOUNTAINS...

CITY           SKY/WX    TMP DP  RH WIND       PRES   REMARKS
ALAMOSA        CLEAR     50  12  21 SW5       30.33R
LA VETA PASS   CLOUDY    39  10  30 SW8       30.39R
SAGUACHE       CLEAR     43  18  36 SE5       30.36R
$$

COZ035-036-038>040-120100-
...NORTHERN COLORADO FRONT RANGE...

CITY           SKY/WX    TMP DP  RH WIND       PRES   REMARKS
DENVER INTL AP MOCLDY    47  28  47 E14       30.18R
DMNS CITY PARK   N/A     58  20  22 E10       30.18R
AURORA         NOT AVBL
FRONT RANGE AP MOCLDY    45  28  53 E9        30.20R
ERIE MUNI ARPT CLOUDY    56  21  26 SE22G31   30.15R
BOULDER MUN AP CLOUDY    54  32  43 NW8G18    30.15R
CENTENNIAL     MOCLDY    59  23  25 N18G25    30.17R
BROOMFIELD     MOCLDY    61  19  20 W22       30.17R
FORT COLLINS   CLOUDY    52  28  40 CALM      30.17R
LONGMONT       CLOUDY    56  29  36 E8        30.18R
$$

COZ041-046-047-076>085-087-088-120100-
...PIKES PEAK/PALMER DIVIDE AND SOUTHERN FOOTHILLS...

CITY           SKY/WX    TMP DP  RH WIND       PRES   REMARKS
COLO. SPRINGS  CLOUDY    53  23  31 NE10      30.19R
A. F. ACADEMY  NOT AVBL
SCHRIEVER AFB  FAIR      51  26  37 NW8       30.19R
ELLICOTT       CLOUDY   N/A N/A N/A E8        30.18R
FALCON         CLOUDY    52  19  27 N3        30.23R
FORT CARSON    CLOUDY    56  26  32 N6        30.16R
LIMON          CLEAR     42  30  62 N8        30.21R
MONUMENT HILL  CLEAR     43  27  52 NE6       30.24R
TRINIDAD       CLEAR     65  11  12 N8        30.16R
$$

COZ042>045-048>051-090-091-120100-
...NORTHEAST COLORADO...

CITY           SKY/WX    TMP DP  RH WIND       PRES   REMARKS
GREELEY ARPT   CLEAR     48  30  49 S10       30.14R
AKRON          CLOUDY    48  29  47 NW7       30.16R
BURLINGTON     CLOUDY    48  30  49 N6        30.16R
WRAY           NOT AVBL
STERLING       CLOUDY    50  32  50 N10       30.14R
HOLYOKE        CLOUDY    52  32  46 NW6       30.13R
FORT MORGAN    CLOUDY    48  27  43 NE10      30.17R
$$

COZ086-089-092>099-120100-
...SOUTHEAST COLORADO...

CITY           SKY/WX    TMP DP  RH WIND       PRES   REMARKS
PUEBLO         CLOUDY    72  13  10 W13       30.09R
LA JUNTA       CLOUDY    61  25  25 NE7       30.11R
LAMAR          CLOUDY    61  21  21 NE8       30.10R
SPRINGFIELD      N/A     61  19  19 N8        30.11R
$$



USA.gov is the U.S. government's official web portal to all federal, state and local government web resources and services.